008  
ASUS44 KMEG 221110  
RWRMEG  
MEMPHIS CWA HOURLY WEATHER ROUNDUP  
NATIONAL WEATHER SERVICE MEMPHIS TN  
600 AM CDT SUN OCT 22 2017  
   
..WEST TENNESSEE
 
 
 
CITY SKY/WX TMP DP RH WIND PRES REMARKS
 
MEMPHIS INTL MOCLDY 70 64 81 S8 30.01S  
NWS MEMPHIS N/A 69 N/A N/A MISG N/A  
JACKSON MOCLDY 69 62 78 S10G18 30.04F  
COVINGTON CLOUDY 70 63 78 S7G15 30.01S  
SOMERVILLE PTCLDY 70 63 78 S12G20 30.02R  
BOLIVAR PTCLDY 68 61 77 SE9G16 30.04F  
SELMER CLEAR 68 61 77 SE12 30.07S  
SAVANNAH MOCLDY 66 59 77 S9 30.08R  
DYERSBURG N/A 69 62 78 SE10G22 30.01F  
UNION CITY MOCLDY 68 61 77 S12 30.01F  
HUNTINGDON MOCLDY 68 61 77 S10 30.04S  
 
   
..EASTERN ARKANSAS
 
 
 
CITY SKY/WX TMP DP RH WIND PRES REMARKS
 
JONESBORO CLOUDY 71 67 87 S10 29.95S  
WEST MEMPHIS CLEAR 68 66 93 S8 29.99S  
BATESVILLE RAIN 60 59 96 CALM 29.97F FOG  
NEWPORT RAIN 59 58 96 NW10 30.01R  
WALNUT RIDGE LGT RAIN 61 59 93 SW12 29.98R  
BLYTHEVILLE CLOUDY 71 64 78 S12 29.99S  
SEARCY CLOUDY 61 60 97 N10G21 29.96  
STUTTGART TSTM 60 59 96 N7 30.01R FOG  
PINE BLUFF CLOUDY 60 59 96 NW12 30.02R  
MONTICELLO CLOUDY 71 69 93 W6 30.01R  
 
   
..NORTH MISSISSIPPI
 
 
 
CITY SKY/WX TMP DP RH WIND PRES REMARKS
 
TUPELO MOCLDY 67 60 78 E9 30.07S  
BATESVILLE CLEAR 68 64 86 CALM 30.03S  
TUNICA N/A N/A N/A N/A SE6 30.02S  
CLARKSDALE N/A 70 70 100 SE7 30.00F  
CORINTH MOCLDY 68 59 73 SE8 30.08R  
GREENWOOD MOCLDY 72 64 76 SE7 30.02R  
COLUMBUS CLOUDY 66 63 88 SE9 30.09R  
STARKVILLE MOCLDY 66 63 88 E3 30.10R  
GOLDEN TRIANGL MOCLDY 67 62 84 SE12 30.10R  
 
   
..SOUTHEAST MISSOURI
 
 
 
CITY SKY/WX TMP DP RH WIND PRES REMARKS
 
KENNETT CLOUDY 72 64 78 S18 29.95S  
MALDEN PTCLDY 70 63 78 S18G24 29.96S  
WEST PLAINS LGT RAIN 59 57 93 NW5 29.96R  
POPLAR BLUFF CLOUDY 71 65 81 S17G25 29.91F  
CAPE GIRARDEAU CLOUDY 68 62 81 S20G33 29.96F  
 
   
..NORTHWEST ALABAMA
 
 
 
CITY SKY/WX TMP DP RH WIND PRES REMARKS
 
MUSCLE SHOALS CLOUDY 63 57 81 SE5 30.15R  
 
   
..MIDDLE TENNESSEE
 
 
 
CITY SKY/WX TMP DP RH WIND PRES REMARKS
 
NASHVILLE CLOUDY 65 52 62 SE10 30.14R  
CLARKSVILLE CLOUDY 63 55 75 SE8 30.10S  
COLUMBIA PTCLDY 64 55 72 S6 30.12R  
 
   
..WESTERN KENTUCKY
 
 
 
CITY SKY/WX TMP DP RH WIND PRES REMARKS
 
PADUCAH CLOUDY 68 59 73 S13G20 30.01S  
FORT CAMPBELL CLOUDY 63 56 77 SE9 30.08F  
 
   
..CENTRAL ARKANSAS
 
 
 
CITY SKY/WX TMP DP RH WIND PRES REMARKS
 
LITTLE ROCK LGT RAIN 59 59 100 W7 30.00R  
 
SKY/WX REPORTED AS FAIR MEANS FEW OR NO CLOUDS BELOW  
12 THOUSAND FEET.  
 
 
 
CLICK HERE TO GO TO PREVIOUS BULLETINS.

The Nexlab TN Page
The Nexlab MS Page
The Nexlab AR Page Main Text Page